Showing default

FLYING LAPTOP, 42831

Orbit data source: Space-Track

FLYING LAPTOP, 42831 is a payload satellite owned by IRS Stuttgart (DE) in SSO that was launched on Fri, 14 Jul 2017 UTC via a SOYUZ-2-1A launch vehicle from the Tyuratam Missile And Space Complex (TTMTR). Payload-class satellites include a variety of spacecraft equipped with specific instruments for various scientific and technological missions. These include communications satellites like Starlink; space stations such as the ISS; scientific satellites like the Hubble; Earth observation satellites from companies like Planet Labs, Umbra, and HawkEye 360; GPS; miniature CubeSats for education and research; and military/defense satellites.

Loading next visibility...
Identifier
42831, 2017-042G
Orbit
SSO
Country
Flag of DEDE / GER
Related business
Manufacturer
IRS Stuttgart
Mission
Operational Amateur Technology
Bus & Motor
FLP, Unknown motor
Mass
120 kg wet, 120 kg dry
Launch date (UTC)
2017-07-14 (9 years ago)
Launch vehicle
SOYUZ-2-1A
Launch site
Tyuratam Missile And Space Complex (TTMTR)
Object type
Payload
Rocket body
Debris
Shape & HBR
Box + 2 Pan, 1.1 m
Radar Cross Section
0.788 m², Medium (>0.1 m² and < 1m²)

Expand to show TLE details & history
Last TLE update: 4 hours ago

TLE from 4 hours ago
0 FLYING LAPTOP
1 42831U 17042G   26125.32037245  .00002828  00000-0  22611-3 0  9999
2 42831  97.4503 282.5611 0017703 270.1503  89.7693 15.00868512480021
Epoch: 2026-05-05T07:41Z
TLE epoch observation values (Epoch: 2026-05-05T07:41:20.179Z)
Latitude
-0.00004°
Longitude
-55.96988°
Altitude
567.252 km
Speed
7.577 km/s
True Right ascension
18h 50m 14s
True Declination
0° 00' 00"
Sunlit
Object was in full shadow at epoch
Visualization orbit readout
Latitude
Unknown
Longitude
Unknown
Altitude
Unknown
Speed
Unknown
Apparent Right ascension
Unknown
Apparent Declination
Unknown
Sunlit
N/A
Visualization observer readout
Local Sidereal Time
20:00:30
Azimuth
Unknown
Elevation
Unknown
Doppler factor
Unknown
Orbital elements
Apogee altitude
573.495 km
Perigee altitude
548.925 km
Semi-major axis
6,939.347 km
Eccentricity
0.00177
Inclination
97.4503°
RAAN
282.5611°
Arg. of periapsis
270.1503°
True anomaly
89.97216°
Mean anomaly
89.7693°
Eccentric anomaly
89.87073°
Mean motion
3.75461 °/min
Orbital period
95.88 mins
BSTAR
0.00022611
Loading maneuver chart data...
Computing Atmospheric mass density...

Documentation

Showing up to 5 results
|